Погода в Оленегорске

Россия / Республика Саха (Якутия)     69°48′41″N   147°29′11″E
темп.,
°C
ветер,
м/с
пор.,
м/с
влажн.,
%
обл.,
%
осадки,
мм/ч
давл.,
гПа
погр.,
м
20 января, чт
чт2023:00−36юв359835 0.0 103368
02:00−36юв45979 0.0 103161
05:00−35юв449735 0.0 103054
08:00−36юв449751 0.0 103052
11:00−36юв449771 0.0 102852
14:00−35ююв349688 0.0 102751
17:00−36ююв349564 0.0 102744
20:00−37ююв339692 0.0 102737
21 января, пт
пт2123:00−39ююв229938 0.0 102715
02:00−40юв2210038 0.0 102715
05:00−41юв229973 0.0 102616
08:00−41юв229929 0.0 102612
11:00−41юв229835 0.0 102617
14:00−42юв229952 0.0 102514
17:00−42юв229980 0.0 102511
20:00−42ююв119980 0.0 10268
22 января, сб
сб2223:00−42з009892 0.0 10278
02:00−40ссз1197100 0.0 102713
05:00−38ссз2298100 0.0 102734
08:00−35с2297100 0.0 102743
11:00−30ссз1194100 0.0 102644
14:00−30с1196100 0.0 102619
17:00−31ссв119792 0.0 10269
20:00−31св009786 0.0 10269
23 января, вс
вс2323:00−32юв119884 0.0 10269
02:00−33ююв119976 0.0 10259
05:00−34юв1110060 0.0 10249
08:00−36юв111009 0.0 10249
11:00−37юв2110029 0.0 10239
14:00−37юв1110033 0.0 10229
17:00−38юв1110017 0.0 10229
20:00−38вюв1110038 0.0 10229
24 января, пн
пн2423:00−39юв1110050 0.0 10229
02:00−40юв0010056 0.0 10239
05:00−41в0010054 0.0 10238
08:00−40ссз1110096 0.0 10248
11:00−38ссз11100100 0.0 102418
14:00−35ссз22100100 0.0 102438
17:00−32ссз239888 0.1 102457
20:00−33ссз2210089 0.0 102428